QPF
0.02 0.03 0.04 0.04 0.05 0.07 0.09 0.11 0.14 0.09 0.02 0.00 0.00 0.00 0.00 0.00 0.00 0.00 0.00 0.00 0.00 0.00 0.00 0.00 0.00 0.00 0.01 0.02 0.05 0.11 0.19 0.30 0.35 0.35 0.33 0.30 0.31 0.31
0.01 0.02 0.02 0.03 0.04 0.06 0.07 0.08 0.09 0.11 0.06 0.01 0.00 0.00 0.00 0.00 0.00 0.00 0.00 0.00 0.00 0.00 0.00 0.00 0.00 0.00 0.01 0.02 0.03 0.08 0.17 0.26 0.36 0.37 0.36 0.34 0.31 0.29
0.00 0.00 0.01 0.01 0.02 0.03 0.04 0.04 0.05 0.06 0.06 0.02 0.00 0.00 0.00 0.00 0.00 0.00 0.00 0.00 0.00 0.00 0.00 0.00 0.00 0.00 0.01 0.02 0.04 0.06 0.13 0.26 0.38 0.45 0.41 0.39 0.35 0.28
0.00 0.00 0.00 0.00 0.01 0.02 0.02 0.03 0.03 0.04 0.05 0.03 0.01 0.00 0.00 0.00 0.00 0.00 0.00 0.00 0.00 0.00 0.00 0.00 0.00 0.01 0.01 0.02 0.04 0.07 0.11 0.22 0.38 0.53 0.54 0.42 0.36 0.32
0.00 0.00 0.00 0.00 0.01 0.01 0.02 0.03 0.03 0.02 0.02 0.02 0.01 0.01 0.00 0.01 0.01 0.00 0.00 0.00 0.00 0.00 0.00 0.00 0.00 0.00 0.01 0.02 0.05 0.09 0.11 0.15 0.27 0.45 0.64 0.65 0.46 0.35
0.00 0.00 0.00 0.00 0.01 0.03 0.04 0.05 0.04 0.02 0.01 0.02 0.02 0.01 0.01 0.01 0.01 0.01 0.01 0.01 0.01 0.00 0.00 0.00 0.00 0.01 0.01 0.02 0.04 0.08 0.11 0.14 0.19 0.33 0.50 0.69 0.68 0.47
0.01 0.01 0.00 0.01 0.02 0.05 0.07 0.08 0.06 0.04 0.02 0.02 0.02 0.01 0.01 0.02 0.03 0.02 0.02 0.01 0.01 0.01 0.01 0.01 0.01 0.01 0.01 0.02 0.04 0.08 0.11 0.13 0.16 0.21 0.35 0.51 0.64 0.62
0.03 0.01 0.01 0.00 0.01 0.03 0.06 0.07 0.06 0.06 0.06 0.05 0.03 0.02 0.02 0.02 0.02 0.02 0.02 0.02 0.02 0.02 0.02 0.02 0.02 0.02 0.02 0.02 0.04 0.07 0.11 0.13 0.13 0.15 0.21 0.35 0.49 0.57
0.02 0.01 0.01 0.00 0.01 0.04 0.07 0.03 0.02 0.04 0.06 0.07 0.05 0.03 0.03 0.03 0.03 0.03 0.02 0.02 0.02 0.02 0.02 0.02 0.03 0.03 0.03 0.04 0.06 0.06 0.10 0.13 0.13 0.12 0.15 0.22 0.34 0.46
0.01 0.01 0.00 0.00 0.01 0.07 0.06 0.01 0.01 0.03 0.05 0.06 0.06 0.05 0.04 0.04 0.04 0.03 0.02 0.02 0.01 0.02 0.03 0.03 0.04 0.05 0.05 0.05 0.06 0.07 0.08 0.11 0.13 0.12 0.12 0.16 0.23 0.34
0.01 0.00 0.00 0.01 0.03 0.05 0.03 0.02 0.02 0.03 0.03 0.04 0.05 0.05 0.05 0.04 0.05 0.04 0.02 0.03 0.04 0.06 0.06 0.04 0.05 0.07 0.08 0.08 0.08 0.09 0.09 0.10 0.12 0.12 0.12 0.13 0.17 0.28
0.00 0.00 0.00 0.01 0.02 0.02 0.02 0.02 0.05 0.05 0.03 0.02 0.02 0.02 0.02 0.02 0.03 0.04 0.03 0.04 0.07 0.11 0.10 0.05 0.06 0.08 0.11 0.11 0.11 0.11 0.10 0.10 0.11 0.12 0.12 0.13 0.16 0.24
0.00 0.00 0.00 0.01 0.01 0.01 0.01 0.03 0.08 0.07 0.04 0.04 0.03 0.02 0.02 0.02 0.02 0.03 0.03 0.05 0.08 0.11 0.12 0.08 0.09 0.09 0.10 0.11 0.14 0.15 0.13 0.09 0.09 0.11 0.12 0.14 0.17 0.18
0.01 0.00 0.00 0.01 0.00 0.00 0.00 0.02 0.03 0.03 0.03 0.04 0.04 0.03 0.03 0.03 0.02 0.03 0.03 0.04 0.07 0.10 0.12 0.11 0.13 0.11 0.08 0.10 0.14 0.18 0.17 0.14 0.10 0.09 0.09 0.14 0.20 0.23
0.00 0.00 0.00 0.00 0.00 0.00 0.00 0.00 0.01 0.02 0.03 0.04 0.05 0.05 0.05 0.05 0.04 0.03 0.03 0.03 0.05 0.08 0.11 0.12 0.15 0.13 0.08 0.09 0.12 0.17 0.19 0.18 0.13 0.11 0.10 0.12 0.17 0.23
0.00 0.00 0.00 0.00 0.00 0.00 0.00 0.00 0.00 0.01 0.03 0.04 0.05 0.05 0.04 0.04 0.04 0.04 0.03 0.03 0.05 0.06 0.08 0.11 0.16 0.14 0.09 0.08 0.11 0.16 0.18 0.19 0.16 0.14 0.12 0.12 0.15 0.18
0.00 0.00 0.00 0.00 0.00 0.00 0.00 0.00 0.00 0.00 0.01 0.03 0.04 0.04 0.04 0.04 0.04 0.04 0.04 0.04 0.05 0.06 0.07 0.09 0.14 0.14 0.10 0.09 0.11 0.17 0.19 0.19 0.17 0.15 0.14 0.14 0.19 0.20
0.00 0.00 0.00 0.00 0.00 0.00 0.00 0.00 0.00 0.00 0.00 0.01 0.03 0.04 0.04 0.04 0.04 0.03 0.03 0.04 0.04 0.05 0.06 0.08 0.12 0.13 0.11 0.10 0.13 0.17 0.22 0.23 0.22 0.19 0.15 0.13 0.20 0.24
0.00 0.00 0.00 0.01 0.01 0.00 0.00 0.00 0.00 0.00 0.00 0.00 0.01 0.02 0.03 0.03 0.03 0.03 0.03 0.03 0.04 0.04 0.05 0.06 0.09 0.13 0.12 0.11 0.13 0.18 0.22 0.25 0.26 0.26 0.21 0.15 0.16 0.23
0.00 0.01 0.01 0.01 0.01 0.01 0.01 0.00 0.00 0.00 0.00 0.00 0.00 0.01 0.02 0.02 0.03 0.03 0.03 0.04 0.04 0.04 0.04 0.05 0.07 0.11 0.14 0.13 0.13 0.17 0.26 0.27 0.25 0.28 0.27 0.22 0.19 0.27
0.00 0.00 0.01 0.01 0.01 0.01 0.01 0.01 0.00 0.00 0.00 0.00 0.00 0.00 0.01 0.01 0.02 0.02 0.02 0.03 0.03 0.03 0.04 0.06 0.07 0.10 0.13 0.14 0.12 0.14 0.22 0.33 0.30 0.26 0.25 0.22 0.21 0.22
0.00 0.00 0.01 0.01 0.02 0.02 0.01 0.01 0.01 0.00 0.00 0.00 0.00 0.00 0.00 0.01 0.01 0.02 0.02 0.02 0.03 0.04 0.05 0.06 0.06 0.06 0.09 0.12 0.12 0.12 0.17 0.26 0.34 0.36 0.31 0.23 0.16 0.16
0.01 0.01 0.01 0.01 0.02 0.02 0.02 0.01 0.01 0.00 0.00 0.00 0.00 0.00 0.00 0.00 0.00 0.01 0.01 0.02 0.02 0.03 0.03 0.04 0.05 0.07 0.10 0.13 0.13 0.12 0.15 0.21 0.25 0.30 0.37 0.37 0.25 0.15
MSLP
1022.90 1022.29 1021.65 1020.96 1020.21 1019.40 1018.52 1017.58 1016.59 1015.57 1014.54 1013.53 1012.57 1011.68 1010.87 1010.14 1009.50 1008.95 1008.48 1008.08 1007.73 1007.43 1007.15 1006.89 1006.62 1006.34 1006.04 1005.71 1005.37 1005.05 1004.78 1004.60 1004.56 1004.68 1005.00 1005.54 1006.27 1007.16
1022.51 1021.89 1021.23 1020.53 1019.77 1018.95 1018.08 1017.15 1016.19 1015.21 1014.24 1013.28 1012.37 1011.51 1010.70 1009.96 1009.27 1008.65 1008.08 1007.58 1007.15 1006.78 1006.46 1006.19 1005.95 1005.72 1005.48 1005.23 1004.97 1004.69 1004.44 1004.25 1004.15 1004.20 1004.43 1004.86 1005.50 1006.32
1022.00 1021.37 1020.71 1020.00 1019.25 1018.44 1017.58 1016.70 1015.79 1014.87 1013.97 1013.08 1012.23 1011.42 1010.63 1009.87 1009.13 1008.43 1007.76 1007.14 1006.58 1006.11 1005.71 1005.39 1005.15 1004.95 1004.77 1004.60 1004.41 1004.21 1004.01 1003.84 1003.75 1003.76 1003.93 1004.28 1004.84 1005.59
1021.34 1020.73 1020.08 1019.39 1018.65 1017.88 1017.06 1016.22 1015.37 1014.53 1013.71 1012.91 1012.13 1011.36 1010.60 1009.84 1009.06 1008.27 1007.50 1006.75 1006.06 1005.45 1004.95 1004.55 1004.27 1004.07 1003.93 1003.82 1003.72 1003.61 1003.49 1003.39 1003.32 1003.34 1003.49 1003.80 1004.30 1004.99
1020.56 1019.98 1019.36 1018.71 1018.01 1017.27 1016.50 1015.72 1014.94 1014.17 1013.43 1012.71 1012.01 1011.30 1010.58 1009.82 1009.01 1008.16 1007.29 1006.43 1005.60 1004.86 1004.23 1003.73 1003.37 1003.14 1003.01 1002.95 1002.92 1002.91 1002.88 1002.87 1002.87 1002.93 1003.09 1003.40 1003.86 1004.49
1019.70 1019.16 1018.59 1017.98 1017.33 1016.64 1015.93 1015.20 1014.47 1013.77 1013.10 1012.45 1011.82 1011.18 1010.50 1009.76 1008.95 1008.07 1007.13 1006.17 1005.22 1004.35 1003.59 1002.98 1002.53 1002.24 1002.10 1002.05 1002.08 1002.14 1002.21 1002.29 1002.39 1002.52 1002.72 1003.03 1003.47 1004.06
1018.82 1018.32 1017.81 1017.26 1016.66 1016.02 1015.34 1014.65 1013.96 1013.31 1012.69 1012.10 1011.53 1010.95 1010.33 1009.63 1008.84 1007.96 1006.99 1005.96 1004.93 1003.95 1003.08 1002.35 1001.80 1001.43 1001.24 1001.19 1001.24 1001.36 1001.51 1001.68 1001.87 1002.08 1002.33 1002.67 1003.11 1003.67
1017.97 1017.53 1017.07 1016.57 1016.01 1015.41 1014.76 1014.09 1013.42 1012.79 1012.20 1011.65 1011.13 1010.60 1010.04 1009.40 1008.66 1007.80 1006.83 1005.79 1004.71 1003.65 1002.68 1001.86 1001.20 1000.75 1000.48 1000.39 1000.44 1000.59 1000.80 1001.05 1001.32 1001.60 1001.92 1002.30 1002.74 1003.28
1017.23 1016.84 1016.42 1015.96 1015.43 1014.84 1014.20 1013.54 1012.87 1012.24 1011.65 1011.12 1010.63 1010.14 1009.64 1009.06 1008.37 1007.57 1006.64 1005.61 1004.52 1003.42 1002.39 1001.48 1000.74 1000.19 999.85 999.70 999.73 999.88 1000.12 1000.42 1000.75 1001.11 1001.49 1001.90 1002.36 1002.88
1016.65 1016.28 1015.89 1015.46 1014.95 1014.36 1013.71 1013.03 1012.35 1011.69 1011.09 1010.55 1010.07 1009.61 1009.14 1008.62 1008.00 1007.26 1006.38 1005.39 1004.32 1003.22 1002.16 1001.19 1000.38 999.75 999.33 999.12 999.10 999.23 999.48 999.81 1000.19 1000.60 1001.03 1001.48 1001.97 1002.50
1016.23 1015.88 1015.50 1015.07 1014.57 1013.98 1013.31 1012.61 1011.90 1011.21 1010.58 1010.02 1009.52 1009.06 1008.61 1008.12 1007.55 1006.86 1006.05 1005.11 1004.07 1002.99 1001.92 1000.93 1000.07 999.39 998.91 998.64 998.57 998.67 998.91 999.25 999.66 1000.11 1000.58 1001.08 1001.59 1002.14
1015.97 1015.62 1015.24 1014.81 1014.30 1013.70 1013.03 1012.30 1011.55 1010.84 1010.17 1009.57 1009.04 1008.56 1008.10 1007.62 1007.07 1006.41 1005.64 1004.75 1003.76 1002.71 1001.66 1000.67 999.79 999.08 998.55 998.24 998.13 998.20 998.42 998.75 999.17 999.64 1000.15 1000.68 1001.24 1001.82
1015.84 1015.48 1015.10 1014.66 1014.15 1013.54 1012.86 1012.12 1011.35 1010.61 1009.90 1009.26 1008.69 1008.17 1007.67 1007.16 1006.60 1005.95 1005.20 1004.33 1003.38 1002.37 1001.36 1000.39 999.52 998.81 998.27 997.93 997.78 997.82 998.01 998.33 998.75 999.23 999.76 1000.32 1000.92 1001.54
1015.80 1015.43 1015.04 1014.60 1014.08 1013.48 1012.80 1012.07 1011.30 1010.54 1009.81 1009.13 1008.51 1007.93 1007.37 1006.81 1006.20 1005.53 1004.77 1003.91 1002.99 1002.02 1001.04 1000.12 999.28 998.59 998.05 997.70 997.54 997.55 997.71 998.00 998.40 998.87 999.41 999.99 1000.63 1001.30
1015.83 1015.44 1015.04 1014.60 1014.09 1013.51 1012.85 1012.14 1011.39 1010.63 1009.89 1009.18 1008.51 1007.87 1007.24 1006.61 1005.94 1005.21 1004.42 1003.56 1002.64 1001.70 1000.78 999.90 999.11 998.45 997.94 997.59 997.42 997.40 997.53 997.78 998.14 998.59 999.11 999.70 1000.35 1001.07
1015.88 1015.49 1015.08 1014.64 1014.15 1013.59 1012.97 1012.29 1011.58 1010.85 1010.12 1009.40 1008.70 1008.00 1007.31 1006.60 1005.85 1005.06 1004.23 1003.34 1002.43 1001.51 1000.62 999.79 999.06 998.44 997.96 997.62 997.44 997.39 997.47 997.67 997.98 998.38 998.87 999.44 1000.10 1000.85
1015.97 1015.56 1015.15 1014.71 1014.23 1013.71 1013.13 1012.51 1011.85 1011.16 1010.47 1009.76 1009.04 1008.31 1007.57 1006.79 1005.98 1005.13 1004.24 1003.33 1002.41 1001.51 1000.66 999.87 999.18 998.61 998.15 997.82 997.62 997.54 997.57 997.70 997.94 998.28 998.71 999.25 999.91 1000.67
1016.08 1015.66 1015.24 1014.80 1014.33 1013.84 1013.31 1012.74 1012.15 1011.53 1010.88 1010.21 1009.51 1008.77 1008.00 1007.18 1006.32 1005.42 1004.50 1003.56 1002.64 1001.75 1000.92 1000.17 999.52 998.97 998.54 998.21 997.99 997.87 997.84 997.90 998.06 998.32 998.70 999.20 999.83 1000.60
1016.22 1015.79 1015.35 1014.90 1014.44 1013.97 1013.48 1012.97 1012.45 1011.90 1011.32 1010.71 1010.05 1009.34 1008.57 1007.74 1006.85 1005.93 1004.98 1004.03 1003.11 1002.23 1001.42 1000.69 1000.07 999.54 999.11 998.78 998.53 998.37 998.29 998.28 998.38 998.57 998.89 999.35 999.95 1000.72
1016.40 1015.95 1015.49 1015.03 1014.56 1014.10 1013.64 1013.19 1012.73 1012.26 1011.76 1011.22 1010.62 1009.96 1009.22 1008.41 1007.54 1006.62 1005.67 1004.72 1003.79 1002.92 1002.13 1001.42 1000.81 1000.29 999.87 999.52 999.26 999.06 998.93 998.88 998.92 999.07 999.35 999.78 1000.37 1001.13
1016.60 1016.13 1015.65 1015.16 1014.69 1014.23 1013.79 1013.38 1012.98 1012.58 1012.16 1011.70 1011.19 1010.59 1009.91 1009.15 1008.32 1007.42 1006.49 1005.55 1004.64 1003.79 1003.00 1002.30 1001.70 1001.19 1000.76 1000.42 1000.14 999.92 999.78 999.71 999.72 999.86 1000.12 1000.54 1001.13 1001.90
1016.82 1016.33 1015.82 1015.31 1014.81 1014.35 1013.93 1013.55 1013.20 1012.86 1012.52 1012.15 1011.72 1011.21 1010.61 1009.92 1009.14 1008.29 1007.40 1006.49 1005.60 1004.76 1003.99 1003.31 1002.71 1002.20 1001.78 1001.44 1001.17 1000.96 1000.82 1000.76 1000.79 1000.93 1001.21 1001.65 1002.26 1003.04
1017.01 1016.51 1015.98 1015.45 1014.93 1014.46 1014.04 1013.69 1013.38 1013.10 1012.83 1012.54 1012.20 1011.78 1011.27 1010.66 1009.96 1009.18 1008.34 1007.48 1006.63 1005.81 1005.06 1004.39 1003.80 1003.31 1002.90 1002.58 1002.32 1002.14 1002.03 1002.01 1002.08 1002.27 1002.59 1003.07 1003.70 1004.51
Thickness
5126 5123 5122 5123 5125 5128 5131 5133 5137 5147 5161 5174 5189 5208 5227 5248 5269 5288 5306 5323 5343 5366 5393 5421 5449 5478 5506 5532 5558 5582 5605 5627 5645 5659 5669 5675 5678 5682
5126 5122 5121 5121 5123 5126 5130 5134 5138 5143 5155 5169 5183 5200 5219 5240 5261 5280 5297 5315 5335 5358 5383 5410 5437 5465 5493 5520 5546 5571 5594 5616 5636 5652 5663 5671 5675 5678
5128 5124 5121 5121 5123 5126 5129 5134 5139 5144 5153 5168 5179 5195 5214 5234 5254 5273 5291 5307 5326 5349 5374 5400 5427 5454 5482 5508 5535 5559 5583 5606 5627 5644 5657 5665 5670 5675
5133 5128 5125 5124 5124 5126 5130 5135 5140 5146 5153 5165 5178 5193 5210 5229 5249 5268 5286 5304 5322 5343 5367 5393 5420 5447 5473 5499 5525 5550 5573 5596 5618 5636 5651 5661 5667 5670
5140 5134 5131 5128 5128 5129 5132 5137 5144 5150 5155 5163 5177 5190 5207 5225 5244 5264 5282 5299 5317 5339 5362 5388 5414 5441 5467 5492 5517 5541 5565 5589 5611 5630 5643 5654 5662 5667
5149 5144 5139 5135 5135 5136 5139 5142 5148 5152 5157 5164 5176 5189 5204 5221 5238 5256 5276 5294 5313 5334 5357 5384 5411 5436 5462 5488 5514 5537 5559 5579 5600 5619 5635 5647 5656 5662
5159 5153 5147 5145 5146 5146 5147 5149 5152 5155 5159 5166 5177 5188 5201 5215 5231 5248 5266 5287 5308 5330 5353 5379 5408 5435 5460 5484 5506 5530 5552 5573 5593 5611 5627 5641 5651 5658
5168 5161 5156 5153 5152 5153 5154 5156 5158 5158 5163 5169 5178 5186 5197 5210 5225 5242 5258 5276 5299 5324 5343 5372 5401 5429 5456 5481 5505 5527 5548 5568 5587 5604 5621 5634 5645 5653
5175 5169 5166 5162 5160 5158 5159 5160 5159 5162 5167 5171 5178 5186 5196 5209 5223 5239 5254 5270 5289 5310 5330 5365 5398 5428 5455 5481 5502 5523 5544 5563 5582 5599 5614 5627 5638 5648
5181 5177 5172 5169 5167 5169 5167 5165 5165 5167 5171 5175 5182 5191 5200 5211 5223 5237 5252 5269 5288 5310 5329 5361 5397 5428 5454 5478 5500 5520 5540 5559 5578 5592 5607 5620 5631 5640
5187 5183 5179 5176 5176 5177 5174 5171 5173 5175 5178 5182 5189 5197 5207 5217 5228 5239 5252 5265 5287 5314 5338 5363 5397 5426 5452 5475 5497 5517 5537 5556 5573 5587 5602 5613 5623 5632
5192 5187 5184 5183 5184 5184 5180 5178 5180 5183 5183 5187 5192 5200 5208 5216 5228 5238 5249 5263 5279 5306 5335 5359 5390 5421 5449 5472 5493 5513 5534 5552 5569 5584 5597 5607 5616 5623
5197 5192 5189 5190 5190 5189 5187 5185 5187 5188 5188 5191 5197 5204 5212 5220 5230 5241 5252 5265 5280 5300 5327 5348 5378 5412 5445 5471 5490 5510 5531 5549 5565 5579 5591 5601 5610 5619
5200 5197 5195 5197 5196 5193 5192 5193 5192 5192 5192 5196 5201 5208 5216 5225 5235 5247 5260 5274 5288 5304 5325 5344 5369 5401 5435 5468 5490 5508 5527 5546 5562 5576 5588 5596 5602 5610
5205 5202 5201 5200 5198 5196 5196 5196 5195 5195 5198 5200 5205 5212 5220 5230 5242 5255 5269 5284 5299 5314 5331 5350 5371 5397 5427 5460 5487 5507 5524 5541 5557 5572 5584 5592 5599 5605
5209 5205 5203 5201 5200 5199 5199 5198 5198 5199 5201 5204 5209 5216 5225 5236 5248 5261 5276 5291 5307 5324 5341 5359 5378 5401 5428 5456 5482 5504 5522 5538 5554 5569 5580 5586 5593 5601
5215 5208 5206 5204 5203 5203 5202 5202 5202 5204 5206 5209 5214 5221 5230 5240 5252 5265 5279 5295 5310 5326 5345 5364 5383 5404 5427 5452 5478 5499 5516 5532 5549 5563 5573 5579 5585 5593
5217 5211 5207 5206 5205 5204 5204 5205 5206 5207 5210 5213 5218 5224 5233 5243 5255 5268 5281 5295 5310 5326 5344 5362 5381 5404 5426 5448 5466 5490 5508 5523 5539 5554 5566 5572 5576 5583
5217 5213 5209 5207 5206 5206 5206 5206 5208 5210 5212 5216 5221 5228 5236 5246 5257 5270 5283 5296 5310 5326 5342 5359 5378 5400 5424 5441 5456 5476 5498 5514 5529 5541 5552 5562 5568 5575
5220 5216 5213 5210 5208 5208 5208 5209 5210 5213 5216 5220 5225 5231 5239 5248 5259 5270 5282 5296 5310 5325 5342 5358 5374 5392 5411 5429 5445 5462 5483 5503 5519 5530 5537 5545 5551 5560
5222 5219 5215 5213 5211 5210 5210 5211 5212 5215 5218 5221 5227 5233 5241 5250 5260 5270 5282 5296 5309 5323 5338 5354 5369 5387 5404 5423 5440 5454 5468 5487 5506 5519 5529 5538 5541 5543
5224 5221 5219 5216 5215 5213 5212 5213 5214 5216 5219 5222 5227 5234 5241 5250 5259 5269 5281 5293 5305 5318 5333 5350 5368 5385 5401 5418 5432 5445 5457 5472 5488 5503 5515 5528 5538 5538
5226 5223 5221 5220 5218 5216 5215 5215 5215 5217 5219 5222 5227 5233 5240 5249 5257 5267 5277 5289 5302 5316 5330 5345 5361 5377 5391 5406 5421 5434 5445 5458 5472 5484 5493 5507 5522 5528